Weather History for KMDJ - January, 2014

Change the Weather History Date:

Friday, January 10, 2014

  Actual Average Record
Temperature  
Mean Temperature 72 °F -  
Max Temperature 73 °F - - ()
Min Temperature 71 °F - - ()
Cooling Degree Days 7    
Growing Degree Days 22 (Base 50)    
Moisture  
Dew Point 70 °F    
Average Humidity 91    
Maximum Humidity 94    
Minimum Humidity 88    
Precipitation  
Precipitation 0.00 in - - ()
Sea Level Pressure  
Sea Level Pressure 29.98 in    
Wind  
Wind Speed 19 mph (South)    
Max Wind Speed 23 mph    
Max Gust Speed 33 mph    
Visibility 10 miles    
Events      
T = Trace of Precipitation, MM = Missing Value Source: NWS Daily Summary

Daily Weather History Graph

Daily Weather History Graph

Search for Another Location

Airport or City:

Trip Planner

Search our weather history database for the weather conditions in past years. The results will help you decide how hot, cold, wet, or windy it might be!

Date:

Astronomy

Jan. 10, 2014 Rise Set
Actual Time 6:53 AM CST 5:20 PM CST
Civil Twilight 6:27 AM CST 5:46 PM CST
Nautical Twilight 5:58 AM CST 6:15 PM CST
Astronomical Twilight 5:29 AM CST 6:43 PM CST
Moon 1:18 PM CST (1/10) 2:08 AM CST (1/10)
Length of Visible Light 11h 18m
Length of Day
10h 27m
Waxing Gibbous, 75% of the Moon is Illuminated
Jan 10
Waxing Gibbous
Jan 15
Full
Jan 23
Last Quarter
Jan 30
New
Feb 6
First Quarter

Hourly Weather History & Observations

Time (CST) Temp. Dew Point Humidity Pressure Visibility Wind Dir Wind Speed Gust Speed Precip Events Conditions
2:35 PM 73.4 °F 69.8 °F 88% 29.99 in 10.0 mi South 16.1 mph - N/A   Mostly Cloudy
2:55 PM 73.4 °F 69.8 °F 88% 29.98 in 10.0 mi South 17.3 mph - N/A   Mostly Cloudy
3:15 PM 73.4 °F 69.8 °F 88% 29.98 in 10.0 mi South 18.4 mph - N/A   Mostly Cloudy
3:35 PM 73.4 °F 69.8 °F 88% 29.98 in 10.0 mi South 15.0 mph - N/A   Scattered Clouds
3:55 PM 73.4 °F 69.8 °F 88% 29.98 in 10.0 mi South 15.0 mph - N/A   Scattered Clouds
4:15 PM 73.4 °F 69.8 °F 88% 29.98 in 10.0 mi South 15.0 mph - N/A   Mostly Cloudy
4:35 PM 73.4 °F 69.8 °F 88% 29.97 in 10.0 mi South 21.9 mph - N/A   Overcast
4:55 PM 73.4 °F 69.8 °F 88% 29.97 in 10.0 mi South 18.4 mph - N/A   Mostly Cloudy
5:15 PM 71.6 °F 69.8 °F 94% 29.97 in 10.0 mi South 19.6 mph - N/A   Partly Cloudy
5:35 PM 71.6 °F 69.8 °F 94% 29.97 in 10.0 mi South 20.7 mph - N/A   Mostly Cloudy
5:55 PM 73.4 °F 69.8 °F 88% 29.97 in 10.0 mi South 23.0 mph - N/A   Overcast
6:15 PM 73.4 °F 69.8 °F 88% 29.98 in 10.0 mi South 19.6 mph - N/A   Overcast
6:35 PM 73.4 °F 69.8 °F 88% 29.98 in 10.0 mi South 20.7 mph - N/A   Overcast
6:55 PM 71.6 °F 69.8 °F 94% 29.98 in 10.0 mi South 20.7 mph - N/A   Overcast
7:15 PM 71.6 °F 69.8 °F 94% 29.98 in 10.0 mi South 20.7 mph - N/A   Overcast
7:35 PM 71.6 °F 69.8 °F 94% 29.99 in 10.0 mi South 19.6 mph - N/A   Mostly Cloudy
7:55 PM 71.6 °F 69.8 °F 94% 29.99 in 10.0 mi South 20.7 mph - N/A   Mostly Cloudy
8:15 PM 71.6 °F 69.8 °F 94% 29.99 in 10.0 mi South 20.7 mph - N/A   Mostly Cloudy
8:35 PM 71.6 °F 69.8 °F 94% 29.99 in 10.0 mi South 20.7 mph - N/A   Overcast
8:55 PM 71.6 °F 69.8 °F 94% 29.99 in 10.0 mi South 20.7 mph - N/A   Overcast
9:15 PM 71.6 °F 69.8 °F 94% 29.99 in 10.0 mi South 20.7 mph - N/A   Overcast
9:35 PM 71.6 °F 69.8 °F 94% 29.99 in 10.0 mi South 21.9 mph 33.4 mph N/A   Overcast
9:55 PM 71.6 °F 69.8 °F 94% 29.99 in 10.0 mi South 20.7 mph - N/A   Overcast
10:15 PM 73.4 °F 71.6 °F 94% 29.99 in 10.0 mi South 20.7 mph - N/A   Overcast
10:35 PM 71.6 °F 69.8 °F 94% 29.99 in 10.0 mi South 20.7 mph - N/A   Overcast
10:55 PM 73.4 °F 69.8 °F 88% 29.99 in 10.0 mi South 20.7 mph - N/A   Overcast
11:15 PM 73.4 °F 69.8 °F 88% 29.99 in 10.0 mi South 19.6 mph - N/A   Overcast
11:35 PM 73.4 °F 69.8 °F 88% 29.98 in 10.0 mi South 19.6 mph - N/A   Overcast
11:55 PM 73.4 °F 69.8 °F 88% 29.98 in 10.0 mi South 19.6 mph - N/A   Overcast